FW3961 Weather Reports


Display with metric or nautical units.
time (UTC)temp
F
wind
direction
speed
MPH
gust
MPH
rain 1hr
in
rain 24hr
in
rain mn
in
humidity
%
barometer
mb
20260506224603 73 200 1.0 3.0 0.00 0.00 0.00 64 1021.1
20260506224058 72 187 1.0 3.0 0.00 0.00 0.00 64 1021.2
20260506223550 73 187 1.0 3.0 0.00 0.00 0.00 62 1021.2
20260506223044 73 300 1.0 3.0 0.00 0.00 0.00 64 1021.3
20260506222537 72 227 1.0 4.0 0.00 0.00 0.00 63 1021.3
20260506222033 72 200 2.0 5.0 0.00 0.00 0.00 64 1021.3
20260506222028 72 144 1.0 5.0 0.00 0.00 0.00 64 1021.4
20260506221019 72 194 1.0 6.0 0.00 0.00 0.00 65 1021.4
20260506220520 71 126 1.0 6.0 0.00 0.00 0.00 67 1021.5
20260506220023 71 196 1.0 4.0 0.00 0.00 0.00 65 1021.5
20260506215519 71 236 1.0 4.0 0.00 0.00 0.00 65 1021.5
20260506215020 71 113 1.0 4.0 0.00 0.00 0.00 66 1021.3
20260506214520 71 134 2.0 3.0 0.00 0.00 0.00 67 1021.4
20260506214020 71 131 2.0 4.0 0.00 0.00 0.00 66 1021.4
20260506213524 70 248 1.0 4.0 0.00 0.00 0.00 68 1021.6
20260506213520 70 141 1.0 4.0 0.00 0.00 0.00 67 1021.5
20260506212519 69 171 1.0 4.0 0.00 0.00 0.00 69 1021.6
20260506212022 70 224 1.0 4.0 0.00 0.00 0.00 69 1021.7
20260506211516 69 158 1.0 3.0 0.00 0.00 0.00 71 1021.6
20260506211017 68 56 1.0 4.0 0.00 0.00 0.00 70 1021.7
20260506210518 68 5 2.0 4.0 0.00 0.00 0.00 70 1021.7
20260506210016 68 157 1.0 3.0 0.00 0.00 0.00 71 1021.8
20260506205516 68 211 1.0 3.0 0.00 0.00 0.00 71 1022.0
20260506205017 68 202 1.0 3.0 0.00 0.00 0.00 72 1021.9
20260506204515 68 212 1.0 3.0 0.00 0.00 0.00 72 1022.0
20260506204016 67 253 1.0 4.0 0.00 0.00 0.00 75 1022.0
20260506203516 67 134 2.0 4.0 0.00 0.00 0.00 74 1022.0
20260506203014 67 213 2.0 4.0 0.00 0.00 0.00 73 1022.0
20260506202513 67 252 2.0 4.0 0.00 0.00 0.00 76 1022.0
20260506202015 66 216 1.0 4.0 0.00 0.00 0.00 76 1022.0
20260506201514 65 172 2.0 7.0 0.00 0.00 0.00 77 1021.9
20260506201013 65 138 2.0 7.0 0.00 0.00 0.00 76 1022.0
20260506200514 65 121 1.0 4.0 0.00 0.00 0.00 76 1021.8
20260506200014 65 126 2.0 4.0 0.00 0.00 0.00 77 1022.0
20260506195515 65 130 2.0 4.0 0.00 0.00 0.00 76 1021.9
20260506195014 66 130 2.0 5.0 0.00 0.00 0.00 76 1021.9
20260506194511 65 130 2.0 7.0 0.00 0.00 0.00 75 1022.0
20260506194012 65 136 2.0 7.0 0.00 0.00 0.00 76 1022.0
20260506193850 64 127 1.0 7.0 0.00 0.00 0.00 79 1021.9
20260506193743 65 145 2.0 7.0 0.00 0.00 0.00 76 1022.0
20260506192510 63 118 1.0 5.0 0.00 0.00 0.00 81 1022.0
20260506192007 62 190 1.0 5.0 0.00 0.00 0.00 82 1021.9
20260506191508 61 164 1.0 5.0 0.00 0.00 0.00 81 1022.1
20260506191001 61 217 1.0 3.0 0.00 0.00 0.00 82 1022.1
20260506190456 61 242 1.0 3.0 0.00 0.00 0.00 82 1022.2
20260506190452 61 197 1.0 3.0 0.00 0.00 0.00 82 1022.1
20260506185442 61 200 1.0 3.0 0.00 0.00 0.00 83 1022.2
20260506184937 60 213 1.0 3.0 0.00 0.00 0.00 83 1022.1
20260506184431 60 231 1.0 3.0 0.00 0.00 0.00 83 1022.1
20260506183925 60 236 1.0 4.0 0.00 0.00 0.00 82 1022.1
20260506183418 60 172 1.0 4.0 0.00 0.00 0.00 83 1022.2
20260506182913 61 231 1.0 3.0 0.00 0.00 0.00 83 1022.1
20260506182407 60 175 1.0 2.0 0.00 0.00 0.00 84 1022.0
20260506182231 60 186 1.0 3.0 0.00 0.00 0.00 84 1022.0
20260506182128 59 202 1.0 4.0 0.00 0.00 0.00 85 1022.1
20260506180849 59 202 1.0 4.0 0.00 0.00 0.00 87 1022.1
20260506180845 58 226 1.0 4.0 0.00 0.00 0.00 87 1022.0
20260506175837 58 218 1.0 4.0 0.00 0.00 0.00 87 1022.1
20260506175331 57 223 1.0 4.0 0.00 0.00 0.00 87 1022.2
20260506174826 57 250 1.0 3.0 0.00 0.00 0.00 87 1022.3
20260506174822 57 213 1.0 3.0 0.00 0.00 0.00 87 1022.2
20260506173813 56 213 1.0 4.0 0.00 0.00 0.00 87 1022.2
20260506173306 56 203 1.0 4.0 0.00 0.00 0.00 88 1022.3
20260506172801 56 223 0.0 2.0 0.00 0.00 0.00 88 1022.3
20260506172254 56 219 0.0 2.0 0.00 0.00 0.00 89 1022.1
20260506172250 56 227 0.0 2.0 0.00 0.00 0.00 88 1021.8
20260506171242 56 229 0.0 2.0 0.00 0.00 0.00 88 1022.0
20260506170737 56 229 0.0 2.0 0.00 0.00 0.00 88 1022.0
20260506170231 56 229 0.0 2.0 0.00 0.00 0.00 88 1022.1
20260506165725 56 229 0.0 3.0 0.00 0.00 0.00 88 1022.0
20260506165219 56 273 0.0 3.0 0.00 0.00 0.00 88 1022.1
20260506164713 56 225 0.0 2.0 0.00 0.00 0.00 89 1022.0
20260506164207 55 225 1.0 2.0 0.00 0.00 0.00 88 1022.0
20260506163702 55 229 0.0 2.0 0.00 0.00 0.00 88 1022.0
20260506163658 55 223 0.0 2.0 0.00 0.00 0.00 89 1021.9
20260506162649 55 223 0.0 2.0 0.00 0.00 0.00 89 1021.9
20260506162143 55 223 1.0 5.0 0.00 0.00 0.00 89 1021.7
20260506161637 55 155 1.0 5.0 0.00 0.00 0.00 89 1021.5
20260506161132 55 155 1.0 5.0 0.00 0.00 0.00 89 1021.4
20260506160625 55 155 0.0 4.0 0.00 0.00 0.00 89 1021.5
20260506160620 55 232 0.0 2.0 0.00 0.00 0.00 89 1021.6
20260506155615 55 233 0.0 2.0 0.00 0.00 0.00 90 1021.8
20260506155106 54 267 0.0 2.0 0.00 0.00 0.00 90 1021.8
20260506154601 54 267 0.0 1.0 0.00 0.00 0.00 91 1021.9
20260506154056 54 267 0.0 1.0 0.00 0.00 0.00 91 1021.9
20260506153549 54 267 0.0 1.0 0.00 0.00 0.00 91 1022.0
20260506153043 53 284 0.0 2.0 0.00 0.00 0.00 91 1021.9
20260506152542 53 290 1.0 2.0 0.00 0.00 0.00 91 1022.1
20260506152538 53 284 1.0 2.0 0.00 0.00 0.00 91 1022.1
20260506151538 53 296 0.0 3.0 0.00 0.00 0.00 92 1022.1
20260506151043 53 302 1.0 3.0 0.00 0.00 0.00 92 1022.2
20260506150539 53 201 1.0 3.0 0.00 0.00 0.00 92 1022.0
20260506150420 53 217 1.0 3.0 0.00 0.00 0.00 92 1021.8
20260506150310 53 260 1.0 2.0 0.00 0.00 0.00 92 1022.0
20260506145039 53 217 1.0 3.0 0.00 0.00 0.00 93 1021.7
20260506144538 53 215 0.0 3.0 0.00 0.00 0.00 92 1021.6
20260506144041 53 238 0.0 2.0 0.00 0.00 0.00 93 1021.4
20260506143539 53 234 0.0 2.0 0.00 0.00 0.00 93 1021.1
20260506143039 53 158 1.0 2.0 0.00 0.00 0.00 93 1021.2
20260506142538 52 144 1.0 3.0 0.00 0.00 0.00 93 1021.0
20260506142042 52 144 0.0 3.0 0.00 0.00 0.00 93 1021.0
20260506141536 52 227 0.0 1.0 0.00 0.00 0.00 93 1021.1
20260506141035 52 227 0.0 1.0 0.00 0.00 0.00 93 1021.1
20260506140539 52 227 0.0 2.0 0.00 0.00 0.00 93 1021.1
20260506140535 52 227 0.0 2.0 0.00 0.00 0.00 93 1021.0
20260506135531 52 228 0.0 1.0 0.00 0.00 0.00 93 1021.0
20260506135031 52 228 0.0 1.0 0.00 0.00 0.00 93 1021.2
20260506134530 52 228 0.0 0.0 0.00 0.00 0.00 93 1021.2
20260506134030 52 228 0.0 1.0 0.00 0.00 0.00 93 1021.2
20260506133530 52 228 0.0 2.0 0.00 0.00 0.00 92 1021.1
20260506133031 52 228 1.0 2.0 0.00 0.00 0.00 92 1021.0
20260506132530 52 236 1.0 2.0 0.00 0.00 0.00 92 1021.1
20260506132031 52 236 1.0 2.0 0.00 0.00 0.00 92 1021.0
20260506131527 52 238 0.0 2.0 0.00 0.00 0.00 92 1021.0
20260506131027 53 238 0.0 0.0 0.00 0.00 0.00 92 1021.0
20260506130526 53 238 0.0 0.0 0.00 0.00 0.00 92 1020.9
20260506130027 52 238 0.0 1.0 0.00 0.00 0.00 93 1020.9
20260506125527 52 238 0.0 1.0 0.00 0.00 0.00 92 1020.9
20260506125026 52 238 0.0 0.0 0.00 0.00 0.00 93 1020.9
20260506124526 52 238 0.0 1.0 0.00 0.00 0.00 93 1020.9
20260506124027 52 238 0.0 1.0 0.00 0.00 0.00 92 1021.0
20260506123526 52 238 0.0 1.0 0.00 0.00 0.00 92 1021.0
20260506123019 52 238 0.0 1.0 0.00 0.00 0.00 92 1020.9
20260506122513 52 238 0.0 1.0 0.00 0.00 0.00 92 1020.9
20260506122018 52 238 0.0 2.0 0.00 0.00 0.00 92 1020.8
20260506122014 52 238 0.0 2.0 0.00 0.00 0.00 92 1020.8
20260506121015 52 236 0.0 3.0 0.00 0.00 0.00 92 1020.7
20260506121011 52 238 0.0 3.0 0.00 0.00 0.00 92 1020.8
20260506120851 52 237 0.0 2.0 0.00 0.00 0.00 92 1020.7
20260506115506 52 233 0.0 2.0 0.00 0.00 0.00 92 1020.7
20260506115012 52 240 0.0 2.0 0.00 0.00 0.00 92 1020.4
20260506115004 52 262 0.0 2.0 0.00 0.00 0.00 92 1020.6
20260506114005 52 246 0.0 2.0 0.00 0.00 0.00 92 1020.3
20260506113504 52 246 0.0 2.0 0.00 0.00 0.00 92 1020.2
20260506113001 52 244 0.0 2.0 0.00 0.00 0.00 92 1020.2
20260506112500 52 238 0.0 1.0 0.00 0.00 0.00 92 1020.1
20260506112000 52 238 0.0 2.0 0.00 0.00 0.00 92 1020.0
20260506111500 52 239 0.0 2.0 0.00 0.00 0.00 92 1020.1
20260506111004 52 238 0.0 2.0 0.00 0.00 0.00 91 1019.9
20260506111000 52 239 0.0 2.0 0.00 0.00 0.00 92 1020.0
20260506110000 52 235 0.0 0.0 0.00 0.00 0.00 91 1019.9
20260506105506 52 235 0.0 0.0 0.00 0.00 0.00 91 1019.7
20260506104957 52 235 0.0 0.0 0.00 0.00 0.00 91 1019.5
20260506104450 52 235 0.0 0.0 0.00 0.00 0.00 91 1019.4
20260506103943 52 235 0.0 0.0 0.00 0.00 0.00 91 1019.4
20260506103442 52 235 0.0 0.0 0.00 0.00 0.00 91 1019.2
20260506103438 52 235 0.0 0.0 0.00 0.00 0.00 91 1019.2
20260506102426 52 235 0.0 0.0 0.00 0.00 0.00 91 1019.2
20260506101923 52 235 0.0 0.0 0.00 0.00 0.00 90 1019.2
20260506101915 52 235 0.0 0.0 0.00 0.00 0.00 91 1019.1
20260506100908 53 235 0.0 0.0 0.00 0.00 0.00 91 1019.1
20260506100402 53 235 0.0 0.0 0.00 0.00 0.00 90 1019.1
20260506095856 53 235 0.0 0.0 0.00 0.00 0.00 90 1019.1
20260506095350 53 235 0.0 0.0 0.00 0.00 0.00 90 1019.0
20260506094843 53 235 0.0 0.0 0.00 0.00 0.00 90 1019.0
20260506094338 53 235 0.0 0.0 0.00 0.00 0.00 90 1019.1
20260506093837 53 235 0.0 0.0 0.00 0.00 0.00 90 1019.0
20260506093833 53 235 0.0 0.0 0.00 0.00 0.00 90 1019.0
20260506092821 53 235 0.0 0.0 0.00 0.00 0.00 90 1018.9
20260506092314 53 235 0.0 0.0 0.00 0.00 0.00 90 1019.0
20260506091808 54 235 0.0 0.0 0.00 0.00 0.00 90 1018.9
20260506091302 54 235 0.0 0.0 0.00 0.00 0.00 90 1018.8
20260506090756 54 235 0.0 0.0 0.00 0.00 0.00 89 1018.7
20260506090251 54 235 0.0 0.0 0.00 0.00 0.00 89 1018.8
20260506085744 54 235 0.0 0.0 0.00 0.00 0.00 89 1018.8
20260506085237 54 235 0.0 0.0 0.00 0.00 0.00 89 1018.8
20260506084732 54 235 0.0 1.0 0.00 0.00 0.00 89 1018.7
20260506084230 55 235 0.0 1.0 0.00 0.00 0.00 88 1018.7
20260506084226 54 235 0.0 1.0 0.00 0.00 0.00 88 1018.8
20260506083216 55 235 1.0 2.0 0.00 0.00 0.00 87 1018.7
20260506082712 56 235 0.0 1.0 0.00 0.00 0.00 85 1018.6
20260506082708 55 235 0.0 2.0 0.00 0.00 0.00 86 1018.6
20260506081657 57 235 0.0 0.0 0.00 0.00 0.00 84 1018.7
20260506081151 57 235 0.0 0.0 0.00 0.00 0.00 84 1018.7
20260506080645 57 235 0.0 0.0 0.00 0.00 0.00 84 1018.6
20260506080138 58 235 0.0 1.0 0.00 0.00 0.00 83 1018.6
20260506073118 58 303 0.0 1.0 0.00 0.00 0.00 82 1018.5
20260506072617 58 303 0.0 2.0 0.00 0.00 0.00 82 1018.6
20260506072118 59 303 1.0 2.0 0.00 0.00 0.00 82 1018.5
20260506071616 59 303 0.0 2.0 0.00 0.00 0.00 82 1018.4
20260506071114 59 305 1.0 2.0 0.00 0.00 0.00 82 1018.4
20260506070618 59 304 0.0 2.0 0.00 0.00 0.00 82 1018.4
20260506070614 59 305 1.0 2.0 0.00 0.00 0.00 82 1018.4
20260506062107 59 307 1.0 3.0 0.00 0.00 0.00 82 1018.2
20260506061606 59 307 1.0 3.0 0.00 0.00 0.00 82 1018.3
20260506061107 60 339 0.0 2.0 0.00 0.00 0.00 83 1018.2
20260506060607 60 340 0.0 2.0 0.00 0.00 0.00 83 1018.2
20260506060112 60 341 0.0 2.0 0.00 0.00 0.00 83 1018.1
20260506060106 60 342 0.0 2.0 0.00 0.00 0.00 83 1018.2
20260506051104 60 12 0.0 0.0 0.00 0.00 0.00 81 1017.9
20260506050607 60 13 0.0 0.0 0.00 0.00 0.00 81 1017.9
20260506044556 60 13 0.0 0.0 0.00 0.00 0.00 81 1017.7
20260506044552 60 13 0.0 0.0 0.00 0.00 0.00 81 1017.7
20260506043544 60 13 0.0 0.0 0.00 0.00 0.00 81 1017.6
20260506043036 60 13 0.0 0.0 0.00 0.00 0.00 81 1017.6
20260506042532 60 13 0.0 0.0 0.00 0.00 0.00 81 1017.5
20260506042026 60 13 0.0 0.0 0.00 0.00 0.00 81 1017.5
20260506041518 60 13 0.0 0.0 0.00 0.00 0.00 82 1017.3
20260506041012 59 13 0.0 1.0 0.00 0.00 0.00 82 1017.2
20260506040507 59 13 0.0 1.0 0.00 0.00 0.00 82 1017.2
20260506035959 59 13 0.0 0.0 0.00 0.00 0.00 82 1017.1
20260506035453 59 13 0.0 1.0 0.00 0.00 0.00 82 1017.2
20260506034950 59 13 0.0 1.0 0.00 0.00 0.00 82 1017.1
20260506034441 59 13 0.0 1.0 0.00 0.00 0.00 81 1016.9
20260506033936 60 13 0.0 1.0 0.00 0.00 0.00 81 1016.9
20260506033430 60 13 0.0 1.0 0.00 0.00 0.00 81 1016.7
20260506032925 60 13 0.0 1.0 0.00 0.00 0.00 80 1016.8
20260506032921 60 13 0.0 1.0 0.00 0.00 0.00 80 1016.8
20260506031911 60 13 0.0 0.0 0.00 0.00 0.00 79 1016.8
20260506031406 61 13 0.0 0.0 0.00 0.00 0.00 79 1016.8
20260506031231 61 13 0.0 0.0 0.00 0.00 0.00 78 1016.6
20260506031126 61 13 0.0 1.0 0.00 0.00 0.00 78 1016.7
20260506025847 61 13 0.0 2.0 0.00 0.00 0.00 78 1016.5
20260506025342 62 13 1.0 2.0 0.00 0.00 0.00 78 1016.5
20260506024836 62 13 0.0 2.0 0.00 0.00 0.00 77 1016.5
20260506024330 62 13 1.0 2.0 0.00 0.00 0.00 77 1016.5
20260506024325 62 13 0.0 2.0 0.00 0.00 0.00 76 1016.5
20260506023318 63 12 1.0 4.0 0.00 0.00 0.00 75 1016.5
20260506022812 63 13 1.0 4.0 0.00 0.00 0.00 75 1016.5
20260506022306 63 48 1.0 3.0 0.00 0.00 0.00 75 1016.5
20260506021802 63 50 1.0 3.0 0.00 0.00 0.00 75 1016.6
20260506021253 63 50 1.0 5.0 0.00 0.00 0.00 74 1016.5
20260506020748 63 67 2.0 5.0 0.00 0.00 0.00 74 1016.5
20260506020242 64 65 2.0 4.0 0.00 0.00 0.00 74 1016.5
20260506015735 64 86 2.0 5.0 0.00 0.00 0.00 73 1016.4
20260506015230 64 75 1.0 5.0 0.00 0.00 0.00 73 1016.5
20260506014723 64 202 0.0 3.0 0.00 0.00 0.00 74 1016.4
20260506014218 64 127 1.0 3.0 0.00 0.00 0.00 73 1016.4
20260506013715 64 130 1.0 3.0 0.00 0.00 0.00 72 1016.4
20260506013206 65 80 1.0 5.0 0.00 0.00 0.00 72 1016.4
20260506012700 65 80 2.0 5.0 0.00 0.00 0.00 72 1016.4
20260506012154 65 29 1.0 3.0 0.00 0.00 0.00 71 1016.4
20260506011647 66 121 1.0 3.0 0.00 0.00 0.00 71 1016.4
20260506011142 66 126 1.0 3.0 0.00 0.00 0.00 71 1016.3
20260506010636 66 133 1.0 3.0 0.00 0.00 0.00 69 1016.3
20260506010130 67 61 1.0 4.0 0.00 0.00 0.00 69 1016.3
20260506005624 67 68 1.0 4.0 0.00 0.00 0.00 69 1016.3
20260506005449 67 290 1.0 3.0 0.00 0.00 0.00 68 1016.5
20260506005345 67 223 1.0 4.0 0.00 0.00 0.00 70 1016.4
20260506004105 67 18 1.0 4.0 0.00 0.00 0.00 70 1016.4
20260506003600 67 69 2.0 4.0 0.00 0.00 0.00 69 1016.4
20260506003054 67 55 2.0 3.0 0.00 0.00 0.00 69 1016.4
20260506002547 67 54 1.0 3.0 0.00 0.00 0.00 68 1016.4
20260506002042 68 103 1.0 3.0 0.00 0.00 0.00 68 1016.4
20260506001536 68 346 1.0 2.0 0.00 0.00 0.00 68 1016.6
20260506001030 68 84 1.0 3.0 0.00 0.00 0.00 69 1016.6
20260506000525 68 55 1.0 3.0 0.00 0.00 0.00 69 1016.5
20260506000017 68 111 1.0 3.0 0.00 0.00 0.00 68 1016.6
20260505235513 67 232 1.0 3.0 0.00 0.00 0.00 70 1016.7
20260505235006 67 66 1.0 3.0 0.00 0.00 0.00 71 1016.7
20260505234459 66 184 0.0 2.0 0.00 0.00 0.00 72 1016.9
20260505233954 65 183 1.0 3.0 0.00 0.00 0.00 71 1016.9
20260505233448 65 72 1.0 3.0 0.00 0.00 0.00 72 1017.0
20260505232942 65 56 1.0 3.0 0.00 0.00 0.00 73 1017.0
20260505232438 65 307 1.0 3.0 0.00 0.00 0.00 72 1016.9
20260505231936 65 67 1.0 3.0 0.00 0.00 0.00 73 1017.0
20260505231436 64 303 1.0 3.0 0.00 0.00 0.00 72 1016.9
20260505230937 64 290 1.0 3.0 0.00 0.00 0.00 72 1016.9
20260505230440 64 5 1.0 4.0 0.00 0.00 0.00 73 1017.1
20260505230435 64 355 1.0 3.0 0.00 0.00 0.00 73 1017.0
20260505225436 64 296 1.0 4.0 0.00 0.00 0.00 74 1017.0
20260505224935 64 111 1.0 3.0 0.00 0.00 0.00 74 1017.0